Weather History for KMKE - February, 2012

Change the Weather History Date:

Monday, February 13, 2012

  Actual Average Record
Temperature  
Mean Temperature 24 °F 25 °F  
Max Temperature 31 °F 32 °F 58 °F (1882)
Min Temperature 16 °F 19 °F -18 °F (1905)
Degree Days  
Heating Degree Days 41 40  
Month to date heating degree days 466 533  
Since 1 July heating degree days 3746 4418  
Cooling Degree Days 0 0  
Month to date cooling degree days 0 0  
Year to date cooling degree days 0 0  
Moisture  
Dew Point 19 °F    
Average Humidity 67    
Maximum Humidity 92    
Minimum Humidity 42    
Precipitation  
Precipitation 0.03 in 0.06 in 0.65 in (1906)
Month to date precipitation 0.07 0.71  
Year to date precipitation 1.44 2.47  
Snow  
Snow 0.40 in 0.30 in 6.50 in (2007)
Month to date snowfall 2.3 4.7  
Since 1 July snowfall 17.8 32.7  
Snow Depth 0.00 in    
Sea Level Pressure  
Sea Level Pressure 29.98 in    
Wind  
Wind Speed 7 mph (SSW)    
Max Wind Speed 18 mph    
Max Gust Speed 24 mph    
Visibility 5 miles    
Events Snow    
T = Trace of Precipitation, MM = Missing Value Source: NWS Daily Summary

Daily Weather History Graph

Daily Weather History Graph

Search for Another Location

Airport or City:

Trip Planner

Search our weather history database for the weather conditions in past years. The results will help you decide how hot, cold, wet, or windy it might be!

Date:

Astronomy

Feb. 13, 2012 Rise Set
Actual Time 6:52 AM CST 5:19 PM CST
Civil Twilight 6:23 AM CST 5:49 PM CST
Nautical Twilight 5:49 AM CST 6:22 PM CST
Astronomical Twilight 5:17 AM CST 6:55 PM CST
Moon No Moon Rise 9:39 AM CST (2/13)
Length of Visible Light 11h 25m
Length of Day
10h 27m
Waning Gibbous, 61% of the Moon is Illuminated
Feb 13
Waning Gibbous
Feb 14
Last Quarter
Feb 21
New
Feb 29
First Quarter
Mar 8
Full

Hourly Weather History & Observations

Time (CST) Temp. Windchill Dew Point Humidity Pressure Visibility Wind Dir Wind Speed Gust Speed Precip Events Conditions
12:52 AM 24.1 °F 14.4 °F 6.1 °F 46% 30.19 in 10.0 mi West 9.2 mph - N/A   Clear
1:52 AM 23.0 °F 14.7 °F 6.1 °F 48% 30.17 in 10.0 mi West 6.9 mph - N/A   Clear
2:52 AM 21.0 °F 14.6 °F 6.1 °F 53% 30.17 in 10.0 mi West 4.6 mph - N/A   Clear
3:52 AM 21.0 °F 16.2 °F 6.1 °F 53% 30.16 in 10.0 mi WSW 3.5 mph - N/A   Clear
4:52 AM 19.0 °F - 5.0 °F 54% 30.15 in 10.0 mi Calm Calm - N/A   Partly Cloudy
5:52 AM 18.0 °F 9.8 °F 3.9 °F 54% 30.15 in 10.0 mi WSW 5.8 mph - N/A   Partly Cloudy
6:52 AM 16.0 °F 8.8 °F 3.9 °F 59% 30.15 in 10.0 mi SW 4.6 mph - N/A   Partly Cloudy
7:52 AM 19.9 °F 11.1 °F 6.1 °F 55% 30.15 in 10.0 mi SSW 6.9 mph - N/A   Mostly Cloudy
8:52 AM 21.9 °F 12.5 °F 6.1 °F 51% 30.14 in 10.0 mi SW 8.1 mph - N/A   Mostly Cloudy
9:52 AM 24.1 °F 15.2 °F 9.0 °F 53% 30.13 in 10.0 mi SW 8.1 mph - N/A   Mostly Cloudy
10:52 AM 27.0 °F 19.5 °F 10.0 °F 49% 30.11 in 10.0 mi SSW 6.9 mph - N/A   Overcast
11:52 AM 28.9 °F 21.9 °F 9.0 °F 43% 30.06 in 10.0 mi South 6.9 mph - N/A   Overcast
12:52 PM 30.9 °F 21.2 °F 10.9 °F 43% 30.03 in 10.0 mi SSW 12.7 mph - N/A   Overcast
1:52 PM 30.0 °F 20.5 °F 21.0 °F 69% 30.01 in 5.0 mi SSW 11.5 mph - 0.00 in Snow Light Snow
2:21 PM 28.4 °F 17.5 °F 24.8 °F 86% 29.97 in 2.0 mi SSW 13.8 mph - 0.00 in Snow Light Snow
2:34 PM 28.4 °F 20.4 °F 24.8 °F 86% 29.97 in 2.0 mi South 8.1 mph - 0.00 in Snow Light Snow
2:49 PM 28.4 °F 20.4 °F 24.8 °F 86% 29.96 in 2.0 mi South 8.1 mph - 0.00 in Snow Light Snow
2:52 PM 28.9 °F 19.2 °F 25.0 °F 85% 29.99 in 2.0 mi South 11.5 mph - 0.00 in Snow Light Snow
2:59 PM 28.4 °F 18.5 °F 24.8 °F 86% 29.96 in 3.0 mi SSW 11.5 mph - 0.00 in Snow Light Snow
3:31 PM 28.4 °F 21.2 °F 24.8 °F 86% 29.94 in 2.0 mi South 6.9 mph - 0.00 in Snow Light Snow
3:47 PM 28.4 °F 22.2 °F 26.6 °F 93% 29.94 in 3.0 mi South 5.8 mph - 0.00 in Snow Light Snow
3:52 PM 28.9 °F 22.8 °F 26.1 °F 89% 29.97 in 3.0 mi South 5.8 mph - 0.00 in Snow Light Snow
4:52 PM 30.0 °F 26.5 °F 25.0 °F 82% 29.94 in 6.0 mi South 3.5 mph - 0.00 in Snow Light Snow
5:42 PM 30.2 °F 24.3 °F 23.0 °F 75% 29.91 in 2.0 mi South 5.8 mph - 0.00 in Snow Light Snow
5:52 PM 30.2 °F 23.4 °F 24.8 °F 80% 29.90 in 2.0 mi South 6.9 mph - N/A Snow Light Snow
6:33 PM 28.4 °F 21.2 °F 24.8 °F 86% 29.90 in 1.8 mi SSE 6.9 mph - 0.01 in Snow Light Snow
6:52 PM 28.9 °F 21.9 °F 26.1 °F 89% 29.92 in 1.8 mi SSE 6.9 mph - 0.01 in Snow Light Snow
7:22 PM 28.4 °F 21.2 °F 26.6 °F 93% 29.88 in 6.0 mi South 6.9 mph - 0.00 in Snow Light Snow
7:52 PM 30.0 °F 26.5 °F 26.1 °F 85% 29.91 in 9.0 mi South 3.5 mph - 0.00 in   Overcast
8:52 PM 30.0 °F 22.4 °F 24.1 °F 79% 29.91 in 3.0 mi South 8.1 mph - 0.00 in Snow Light Snow
9:24 PM 28.4 °F 19.7 °F 24.8 °F 86% 29.87 in 2.0 mi South 9.2 mph - 0.00 in Snow Light Snow
9:36 PM 28.4 °F 21.2 °F 24.8 °F 86% 29.86 in 1.8 mi South 6.9 mph - 0.00 in Snow Light Snow
9:44 PM 28.4 °F 21.2 °F 24.8 °F 86% 29.86 in 2.5 mi South 6.9 mph - 0.00 in Snow Light Snow
9:52 PM 28.9 °F 21.1 °F 25.0 °F 85% 29.89 in 2.5 mi South 8.1 mph - 0.00 in Snow Light Snow
10:05 PM 28.4 °F 19.1 °F 24.8 °F 86% 29.86 in 1.2 mi South 10.4 mph - 0.01 in Snow Light Snow
10:13 PM 28.4 °F 21.2 °F 24.8 °F 86% 29.85 in 1.0 mi South 6.9 mph - 0.01 in Snow Light Snow
10:52 PM 28.0 °F 19.3 °F 24.1 °F 85% 29.87 in 1.2 mi South 9.2 mph - 0.02 in Snow Light Snow
10:54 PM 28.4 °F 20.4 °F 24.8 °F 86% 29.84 in 3.0 mi South 8.1 mph - 0.00 in Snow Light Snow
11:00 PM 28.4 °F 19.7 °F 24.8 °F 86% 29.84 in 2.5 mi South 9.2 mph - 0.00 in Snow Light Snow
11:11 PM 28.4 °F 20.4 °F 24.8 °F 86% 29.84 in 3.0 mi South 8.1 mph - 0.00 in Snow Light Snow
11:38 PM 28.4 °F 19.7 °F 24.8 °F 86% 29.83 in 2.5 mi South 9.2 mph - 0.00 in Snow Light Snow
11:52 PM 28.0 °F 20.8 °F 24.1 °F 85% 29.86 in 4.0 mi South 6.9 mph - 0.00 in   Overcast